GEFSGL_500_meanwind_084.txt.gz
Wind_Speed
48 49 49 50 51 52 53 54 55 56 56 57 58 59 59 60 60 61 61 62 61 61 61 60 59 57 56 55 53 51 50 48 46 45 44 43 41 38 36 35 32 31 30
49 49 50 50 51 52 53 53 54 55 56 57 57 58 59 60 60 61 62 63 63 64 64 64 62 61 59 59 57 56 54 52 50 48 47 45 43 41 39 37 35 33 31
48 49 49 50 51 52 53 53 54 54 55 55 56 56 58 59 60 60 61 62 63 64 64 66 66 64 62 61 60 58 57 56 54 51 49 48 46 43 41 39 37 35 33
49 49 50 51 52 53 53 53 53 53 53 53 53 53 53 55 56 58 59 61 62 62 63 65 66 66 65 63 61 60 58 57 56 54 52 50 48 46 43 41 39 37 35
48 50 51 52 53 53 53 53 52 52 51 51 50 50 50 51 52 53 54 56 59 60 61 62 63 64 65 65 64 63 61 59 57 56 54 52 50 48 45 43 41 39 36
49 50 51 52 52 52 52 51 50 49 48 47 47 47 47 48 49 49 50 51 53 56 58 60 61 62 63 64 64 63 63 62 60 58 56 53 51 50 47 45 42 40 38
50 50 51 51 51 50 49 47 45 44 43 43 44 44 44 44 46 46 47 48 48 50 52 55 56 59 60 62 62 62 62 61 61 59 57 54 52 51 48 46 44 41 39
50 51 51 50 49 47 44 42 41 40 39 40 40 42 43 43 44 44 45 45 45 46 47 49 51 53 55 56 59 60 60 61 61 59 57 55 53 51 50 48 45 42 39
50 50 50 49 47 43 41 38 36 35 35 35 36 38 39 40 42 42 42 42 41 42 43 45 46 47 50 52 54 56 57 58 59 59 58 56 54 52 51 49 46 43 40
50 49 48 47 44 41 38 35 33 31 30 30 31 32 34 36 38 39 39 39 38 38 39 40 41 43 44 46 47 50 53 54 56 57 58 57 55 53 52 50 47 44 40
49 48 47 44 42 38 35 32 29 27 26 25 26 27 29 30 32 34 35 35 35 36 36 37 39 40 41 42 42 44 47 50 53 54 55 55 55 54 52 50 47 44 41
47 47 45 42 39 36 32 28 25 23 22 21 20 21 24 26 29 30 31 32 33 34 34 35 36 37 38 39 40 41 44 47 49 51 52 53 52 53 52 50 48 45 42
46 45 43 40 37 33 29 25 21 18 16 16 15 16 19 22 24 26 28 29 30 31 32 32 33 35 36 37 39 40 42 44 46 49 50 52 52 51 51 50 48 46 43
45 43 41 38 35 31 26 23 18 14 12 11 11 13 15 19 22 23 25 26 27 28 29 29 30 32 32 33 37 38 40 42 43 46 48 50 52 51 50 50 48 46 43
44 42 39 36 33 29 24 21 16 13 11 8 8 9 12 15 18 21 22 23 24 25 26 26 26 28 29 31 33 35 38 40 41 44 47 49 49 49 49 48 48 46 43
44 41 38 35 31 27 23 20 16 13 10 8 6 7 9 11 15 18 19 20 20 22 22 23 24 25 26 28 31 33 36 38 40 42 44 47 48 48 47 47 46 44 42
43 40 37 33 29 26 23 20 16 12 10 6 4 3 6 9 12 15 16 17 17 18 19 19 21 23 23 25 28 31 33 36 37 39 42 46 48 48 46 46 45 43 41
42 40 36 32 28 25 23 19 15 12 9 7 3 0 3 6 9 12 13 14 15 15 16 17 19 21 22 23 27 29 31 33 35 37 40 43 45 45 45 44 44 42 40
41 39 35 32 29 26 23 20 16 13 10 8 5 2 3 5 7 9 11 12 13 14 15 16 17 18 20 23 26 27 29 33 35 36 38 41 43 44 44 43 41 39 38
39 38 35 31 29 26 23 20 17 14 11 9 7 5 5 5 6 7 9 10 11 12 13 15 16 17 19 22 24 26 28 31 35 37 38 39 40 41 41 41 39 37 35
38 37 34 31 29 26 23 21 18 16 13 12 9 8 7 7 6 7 8 9 10 10 11 13 14 16 18 22 25 25 27 31 34 35 35 36 37 38 37 36 37 35 33
36 35 34 31 29 26 24 22 19 17 15 14 12 10 9 9 9 8 9 9 9 9 11 13 15 18 20 22 25 27 29 31 33 32 32 34 35 35 34 34 34 33 32
34 33 32 30 28 26 24 22 21 19 17 16 14 13 13 12 11 12 11 11 11 11 13 14 16 18 21 25 27 28 30 32 33 31 31 32 33 32 31 31 30 30 29
31 31 30 28 27 26 25 23 21 20 19 18 18 17 16 16 15 15 15 13 13 13 15 17 19 21 23 26 27 28 30 32 32 30 29 30 30 29 28 28 28 28 27
28 28 28 27 26 25 24 23 22 21 20 19 19 19 18 18 18 17 17 17 17 18 19 20 21 23 25 26 27 28 30 30 29 28 28 29 28 26 26 26 26 25 24
26 25 25 25 25 24 23 22 21 21 20 20 20 20 20 20 20 19 19 19 19 20 21 22 24 24 25 25 25 26 27 27 27 27 26 25 25 24 24 24 24 23 22

GEFSGL_500_meanwind_090.txt.gz
Wind_Speed
42 42 43 43 44 45 45 45 45 45 45 46 47 48 48 49 50 51 52 53 54 54 55 55 55 54 54 52 51 49 48 47 46 44 43 41 40 38 37 36 36 35 34
43 43 44 44 45 46 46 46 46 46 46 47 48 48 49 50 51 52 52 53 54 56 56 57 57 57 57 56 54 53 51 50 50 48 46 44 43 42 40 39 38 37 35
43 43 44 46 47 46 46 46 47 47 48 49 50 50 50 52 53 53 54 54 54 56 57 57 58 59 59 58 57 56 55 54 52 51 49 48 46 44 42 41 39 38 37
44 44 45 47 47 47 47 47 48 49 50 50 50 51 51 52 53 54 54 55 55 55 56 58 59 60 60 60 59 57 56 56 55 54 52 51 50 47 45 44 42 40 39
45 45 46 47 47 47 48 48 49 49 49 49 49 50 50 50 51 51 53 54 54 54 55 56 58 60 61 62 61 59 57 57 56 55 55 53 52 49 48 46 45 43 41
45 46 46 47 47 47 48 48 47 47 47 47 47 47 47 47 48 48 49 51 52 52 53 54 56 58 60 61 62 62 60 57 56 56 55 54 53 51 50 48 47 45 43
45 46 46 47 46 47 47 46 46 45 44 43 43 43 43 44 44 44 45 45 46 48 49 51 52 53 57 59 61 61 61 59 58 55 55 55 54 53 52 50 48 45 44
45 46 47 46 46 46 45 44 43 42 41 40 40 39 38 38 39 40 41 42 42 43 45 46 49 50 51 53 56 58 58 59 58 56 55 54 54 53 52 50 49 47 45
45 46 46 46 46 45 43 42 41 40 39 38 36 35 34 33 34 35 36 37 37 39 41 43 44 46 47 48 50 52 54 55 57 56 54 53 52 52 51 50 49 47 46
45 46 46 45 45 43 42 40 38 37 35 33 32 30 29 28 27 28 30 32 32 34 37 39 40 41 43 44 44 46 47 49 51 52 52 51 51 51 50 49 47 46 46
45 45 45 44 43 41 40 38 36 34 32 30 28 25 23 22 21 23 25 27 29 30 32 34 35 37 39 40 41 42 43 45 47 49 50 50 51 52 50 48 46 45 45
45 44 43 43 42 40 38 36 33 32 29 27 24 21 19 18 18 19 20 22 24 26 28 31 32 33 35 36 37 38 40 42 44 46 47 48 49 51 51 49 47 46 44
44 43 42 41 41 39 36 33 31 29 27 24 22 18 15 15 16 16 16 19 21 23 25 27 29 30 31 33 35 36 37 40 41 42 44 45 46 47 49 49 48 47 46
43 42 41 40 40 37 34 31 30 28 25 22 19 16 13 12 11 11 12 14 17 19 21 23 25 26 27 29 32 33 34 36 38 40 41 42 43 44 46 47 47 46 45
42 41 40 39 38 35 32 31 29 27 24 20 16 13 11 9 8 8 8 10 13 16 18 20 22 23 24 26 28 31 33 34 35 36 38 39 41 42 44 46 45 45 45
41 41 39 38 36 33 31 29 27 25 23 19 15 12 10 8 7 6 5 7 9 12 15 17 19 20 22 23 25 28 31 32 33 34 35 37 39 41 43 44 44 44 44
41 40 39 37 34 32 30 28 26 24 22 19 15 12 9 7 5 4 4 5 7 9 12 15 16 18 19 21 23 25 28 30 31 33 34 35 37 38 40 43 44 43 43
40 40 38 35 33 31 29 27 25 23 21 19 16 13 10 6 3 2 3 5 6 8 10 12 13 15 17 18 20 23 25 27 29 30 32 34 36 36 38 40 42 42 43
39 38 37 34 32 29 28 26 24 21 20 19 17 14 11 8 4 1 2 4 5 7 9 10 12 13 15 16 18 20 22 23 26 28 30 31 33 34 37 39 39 39 41
37 37 36 33 31 29 26 24 23 21 20 19 17 15 13 10 7 3 2 3 4 6 8 10 11 12 14 15 16 18 20 23 25 27 29 30 31 32 34 37 38 38 40
36 35 33 32 30 28 26 24 22 21 20 19 17 16 14 12 9 6 3 1 3 4 6 8 9 10 12 14 15 17 20 23 24 25 26 28 29 30 32 34 36 38 38
34 33 32 30 28 27 25 23 21 20 18 18 17 15 14 13 11 8 5 3 1 2 3 5 6 7 9 11 13 16 20 22 23 24 25 27 27 28 31 33 34 35 35
32 31 30 29 27 25 24 23 21 20 18 18 17 16 15 14 12 11 8 6 5 4 3 3 5 6 8 11 13 15 17 18 21 23 25 27 28 29 30 31 32 33 32
30 29 29 28 26 23 22 21 20 19 19 18 17 17 16 15 13 11 10 9 8 7 6 6 6 7 10 13 15 16 17 18 20 23 25 26 27 28 28 29 30 29 29
28 27 27 26 24 22 21 20 19 18 18 18 17 17 17 16 15 14 12 11 10 9 8 8 10 12 13 15 16 17 18 19 21 23 25 27 28 28 28 29 29 28 28
25 25 24 24 23 22 20 18 17 16 16 16 16 16 16 16 16 15 14 13 11 10 11 11 14 15 16 16 17 18 18 19 20 23 25 26 27 26 26 27 26 26 26

GEFSGL_500_meanwind_096.txt.gz
Wind_Speed
40 39 39 39 39 39 40 40 40 40 41 42 42 42 42 43 43 43 43 44 44 44 45 45 46 46 46 47 48 48 47 46 45 44 42 42 42 41 41 40 39 39 38
41 40 40 40 40 40 39 39 40 40 41 42 42 43 43 44 44 45 46 46 46 46 46 47 48 49 49 50 50 50 50 49 47 46 45 44 44 44 43 43 42 40 40
42 41 41 41 41 40 40 40 41 41 41 41 42 42 43 44 45 45 46 47 48 49 49 49 50 51 52 52 52 52 53 52 51 49 48 47 47 46 46 45 44 43 42
42 42 41 41 41 40 41 41 41 41 41 42 43 43 43 44 45 46 47 48 49 50 50 51 51 52 54 55 55 54 54 55 54 52 51 50 50 50 49 48 46 45 44
42 41 41 41 41 41 41 40 41 41 41 42 42 42 42 43 44 45 46 48 49 50 51 52 53 54 54 56 56 56 56 57 56 54 53 53 52 52 53 50 49 47 45
42 41 41 41 42 41 40 40 40 40 39 39 39 39 39 40 41 42 43 44 46 48 50 51 53 54 55 56 56 57 57 57 58 57 55 54 53 53 53 53 51 50 48
43 42 42 42 41 41 40 39 39 39 38 38 38 38 38 39 39 40 40 41 43 45 47 50 52 53 54 56 57 58 58 58 58 57 57 56 53 53 54 54 53 51 50
43 43 43 42 41 40 39 39 38 38 38 38 38 37 37 38 38 38 39 40 40 42 44 46 48 50 52 53 56 56 58 59 59 58 57 57 55 53 54 54 54 53 52
44 43 43 41 40 39 39 38 37 37 37 36 36 35 34 34 34 34 35 35 36 37 39 42 44 45 48 50 53 55 57 59 60 60 59 58 57 56 55 55 55 55 54
44 43 42 41 40 39 38 37 36 36 35 34 33 32 31 30 30 29 29 29 30 31 33 36 39 42 45 47 49 51 53 56 58 59 59 59 58 57 56 55 55 54 53
44 43 42 41 40 39 38 36 36 35 33 32 31 29 27 26 25 24 23 23 24 25 27 30 34 37 40 42 44 46 49 52 55 56 58 58 58 57 56 55 54 54 52
44 43 41 40 39 39 37 35 34 34 31 30 29 26 23 22 20 18 18 17 18 19 22 25 29 32 35 38 41 43 45 48 52 53 54 55 55 55 54 53 53 54 53
44 43 41 40 39 38 36 34 33 32 30 28 26 23 21 19 17 15 14 13 14 16 17 20 24 28 31 34 38 40 41 43 46 49 51 52 52 53 53 51 51 52 51
44 42 40 40 39 38 36 33 32 30 28 27 24 22 20 18 15 13 11 10 11 13 15 17 21 23 27 31 34 35 37 39 42 44 47 48 50 51 51 52 51 50 50
43 42 40 39 38 37 35 32 30 28 27 26 24 21 19 16 13 11 9 7 8 9 12 15 17 20 23 26 29 32 33 36 39 42 43 45 46 47 48 49 50 50 50
42 42 39 38 37 36 34 32 29 27 25 25 23 21 18 15 12 10 7 6 6 7 8 11 14 17 20 23 25 28 30 33 36 39 41 42 43 44 45 47 48 49 49
41 41 39 37 37 36 33 31 28 26 24 23 22 21 18 14 12 9 7 6 4 4 6 9 12 15 18 21 23 25 27 30 33 35 37 39 41 42 43 44 45 46 47
41 40 39 37 36 35 33 30 27 25 24 22 22 20 18 16 13 10 8 6 3 2 4 6 9 13 16 19 21 23 25 28 30 32 34 37 37 39 41 42 42 44 45
39 39 38 36 35 34 32 29 27 25 23 22 21 19 18 16 15 12 9 6 2 0 2 5 8 10 13 17 19 21 23 26 29 30 32 34 35 36 38 40 41 42 42
39 38 38 36 33 32 31 29 26 24 23 22 20 19 18 16 15 13 10 7 4 2 1 3 6 9 11 14 17 20 22 24 27 30 31 32 34 35 36 38 39 40 41
37 37 37 35 32 30 29 28 26 24 22 21 20 20 19 17 16 13 11 8 6 3 1 2 4 7 10 13 15 18 20 23 25 28 29 30 31 33 35 36 37 39 40
36 36 35 33 31 29 28 27 25 24 22 20 19 19 19 18 16 14 12 10 8 6 3 1 2 4 7 10 13 16 18 20 23 26 28 29 30 31 33 35 36 37 39
34 34 33 32 30 28 27 26 24 23 21 20 19 18 18 17 16 15 13 12 10 8 6 4 3 3 5 8 11 14 16 18 20 22 25 26 28 30 32 34 35 35 37
32 32 31 30 28 27 26 24 23 22 21 20 19 18 17 16 16 15 13 11 10 9 8 7 6 5 6 8 10 12 14 16 18 20 21 24 27 28 29 31 31 33 35
31 30 29 28 27 25 24 22 21 21 20 20 19 18 17 16 15 14 14 13 12 11 10 9 8 7 8 9 10 11 12 13 15 17 19 21 23 25 27 28 29 30 32
30 29 28 26 25 23 22 21 19 19 19 19 19 19 18 17 16 16 16 15 14 13 12 11 10 10 10 10 10 11 12 13 14 16 17 19 21 24 25 26 27 28 30

GEFSGL_500_meanwind_102.txt.gz
Wind_Speed
37 37 37 37 38 37 37 36 36 36 35 35 36 36 36 37 38 39 40 41 41 42 43 44 44 44 44 44 44 45 45 45 45 46 48 47 47 46 45 45 44 43 43
38 38 38 39 38 38 37 36 36 36 36 36 36 36 36 36 37 38 38 40 41 41 43 44 45 46 47 47 46 46 46 47 48 48 49 50 49 48 47 46 45 45 44
39 39 40 40 39 39 38 38 37 37 37 37 37 37 37 37 38 38 39 40 41 42 44 45 46 47 47 48 48 48 48 49 50 51 51 51 51 51 49 48 47 46 46
40 40 41 40 40 40 39 39 38 38 37 37 37 36 37 37 37 38 39 40 41 42 43 45 46 48 49 49 49 49 49 50 51 52 52 52 52 53 52 51 50 48 47
41 42 41 41 41 41 40 40 39 38 37 36 35 35 35 35 36 37 37 38 39 41 42 44 45 48 50 51 51 52 52 52 52 52 53 54 54 53 53 52 51 51 51
42 42 42 42 42 41 40 39 39 37 36 35 34 34 34 35 35 36 37 37 38 40 41 43 44 46 48 51 53 54 54 54 54 54 54 54 54 54 54 53 52 53 52
43 43 42 42 42 42 41 40 39 37 36 35 34 34 34 34 34 35 36 36 37 39 40 41 43 44 46 49 53 55 56 55 55 55 56 55 55 55 55 54 53 53 53
43 43 43 43 42 42 41 40 39 38 36 35 34 34 33 33 33 33 34 35 36 37 38 39 41 43 45 47 50 54 56 57 56 56 56 57 56 56 56 56 56 55 55
44 44 43 43 42 41 40 40 39 37 36 35 33 32 32 32 32 32 32 32 33 34 35 36 38 40 43 46 48 51 54 57 57 57 57 58 58 58 57 56 56 56 56
44 44 44 43 41 40 40 39 38 37 36 34 32 32 31 31 30 30 29 29 29 30 32 33 35 37 40 43 45 48 51 54 56 57 57 58 58 58 58 57 56 56 55
44 44 43 42 41 40 39 39 38 36 35 32 31 30 29 28 27 27 26 26 26 27 28 29 30 33 36 38 41 44 48 51 53 56 57 58 59 58 59 57 56 56 55
44 44 43 42 41 40 39 39 37 36 34 32 30 29 28 26 25 25 24 24 23 23 23 24 26 28 30 33 37 39 43 48 50 53 55 56 57 57 58 58 56 56 57
44 44 43 42 41 40 39 38 37 35 33 32 29 28 27 26 25 23 22 21 21 20 19 20 22 23 26 28 32 36 39 43 46 49 52 53 55 55 56 57 58 56 55
44 43 42 41 41 40 39 38 36 34 33 31 29 28 27 26 24 22 21 19 17 16 16 16 17 18 20 23 27 31 35 38 41 44 47 50 52 54 55 56 55 55 54
44 43 42 41 41 39 38 37 35 34 32 30 28 27 27 25 23 21 19 17 15 14 12 11 12 13 16 19 22 25 29 33 37 40 43 46 49 51 53 54 53 53 52
43 42 42 41 40 39 37 36 35 33 31 30 28 26 25 24 22 20 19 17 14 12 10 9 10 11 13 16 19 22 25 29 32 35 38 42 44 47 49 51 51 51 51
43 42 42 40 39 38 37 36 34 33 31 29 27 25 25 24 21 20 18 16 14 12 10 8 8 8 10 13 16 19 22 24 28 31 34 37 40 43 46 47 47 48 48
42 41 41 40 38 37 36 35 34 32 30 28 27 25 24 23 21 20 18 16 14 12 10 8 7 7 9 11 13 16 19 22 25 27 30 33 36 39 42 44 46 45 45
41 40 40 38 37 36 35 34 33 31 30 28 26 25 23 22 20 19 17 16 15 13 11 9 6 6 8 10 13 15 17 20 22 24 27 31 34 36 38 41 43 44 44
40 39 38 37 35 35 34 33 33 31 30 28 26 25 23 21 20 19 17 16 15 13 12 10 6 4 6 8 11 14 16 18 20 22 24 27 30 32 34 36 39 41 41
39 38 37 36 35 33 33 33 32 30 29 27 26 25 23 21 19 18 18 15 15 14 13 11 7 4 3 7 10 12 14 16 18 20 22 24 27 29 31 33 36 37 38
38 37 36 35 34 32 32 32 30 29 27 26 25 24 22 21 19 18 17 16 14 14 13 11 8 5 2 3 6 9 12 14 16 18 21 23 24 26 28 31 33 34 35
37 36 34 34 33 32 31 30 29 28 26 25 24 23 21 20 18 17 17 17 15 13 12 10 8 6 4 2 4 8 10 12 15 17 19 21 23 24 27 29 30 31 32
35 34 33 32 32 31 29 29 28 26 25 24 22 21 19 18 17 17 16 16 16 15 13 11 9 7 5 3 3 6 8 10 13 15 16 18 20 22 24 26 28 29 30
34 33 32 30 30 29 28 26 25 24 22 21 20 20 19 17 17 17 17 16 15 15 14 11 10 8 7 5 4 5 6 8 10 12 14 16 19 20 22 24 25 26 27
33 32 30 29 28 27 25 24 23 22 21 19 19 18 18 17 16 16 16 16 16 15 14 12 10 9 7 6 5 5 5 6 9 11 13 14 16 18 19 21 23 24 25

GEFSGL_500_meanwind_108.txt.gz
Wind_Speed
27 28 29 30 31 31 32 32 33 33 33 33 34 35 36 36 37 37 38 38 38 38 39 40 40 42 43 43 43 43 44 44 44 45 46 46 46 47 47 46 46 47 46
28 29 30 31 32 32 33 33 34 34 34 34 35 35 36 36 36 36 37 37 38 38 39 39 40 41 42 44 45 45 46 46 46 46 47 46 47 48 48 47 47 47 48
29 30 31 32 33 34 34 34 35 35 35 35 35 34 34 34 35 35 35 36 37 38 39 39 40 41 42 43 44 46 47 47 47 48 48 48 48 49 49 49 48 49 49
31 32 33 34 35 35 35 35 36 35 35 35 34 33 33 33 34 34 34 35 36 37 38 39 40 41 42 43 44 45 46 47 48 49 49 50 50 50 50 50 50 50 50
32 33 34 35 36 36 36 36 36 35 35 35 34 33 33 33 33 33 33 33 35 36 37 38 39 41 42 43 45 46 47 48 49 50 51 51 51 51 50 50 51 51 51
33 34 35 36 36 36 36 37 37 36 35 35 34 33 32 32 31 31 31 31 33 34 35 36 38 39 40 41 43 45 47 48 49 50 51 52 51 51 51 52 53 52 53
35 35 36 37 37 37 37 37 36 36 35 34 33 32 31 31 30 30 30 30 30 31 33 35 37 38 39 41 42 44 46 47 49 50 51 51 52 52 52 52 53 54 54
35 36 37 37 38 38 38 37 37 36 35 34 33 31 31 30 29 28 28 28 28 29 31 32 35 37 38 40 42 43 45 47 49 50 50 51 52 53 53 52 53 54 55
36 37 38 38 38 38 38 37 36 36 35 34 32 31 30 28 28 27 26 26 26 27 28 30 32 34 36 38 40 42 44 46 49 50 51 52 53 54 54 53 54 54 54
36 38 38 38 38 39 38 37 36 35 34 33 32 31 29 28 27 27 26 26 26 26 26 28 30 32 35 37 39 40 41 44 47 49 52 53 53 54 55 54 54 55 54
37 38 39 39 39 39 39 37 36 35 34 33 32 30 29 28 28 26 25 25 25 24 25 26 28 30 32 35 37 39 40 42 44 47 50 52 53 55 56 55 54 55 55
38 39 40 40 40 40 39 37 36 35 33 33 32 30 29 28 27 26 25 24 24 24 24 24 25 26 27 30 33 36 38 40 43 46 48 51 52 54 55 56 56 55 56
39 40 40 40 40 40 39 37 35 34 33 33 32 30 29 28 26 25 24 24 24 23 22 22 22 23 23 25 28 31 34 36 39 42 45 47 50 52 54 55 55 56 56
40 41 41 40 40 40 38 37 35 34 33 33 32 30 28 27 26 24 24 23 22 21 20 19 19 19 20 21 23 26 28 31 35 38 41 44 47 50 52 53 54 55 56
40 41 41 41 40 39 38 37 35 34 33 32 31 30 28 27 26 25 24 22 21 19 18 17 16 16 16 17 19 21 24 26 30 33 37 40 43 46 48 51 53 54 54
41 42 42 41 40 39 38 36 35 34 33 32 31 30 29 27 26 25 23 22 20 18 17 15 15 15 14 14 16 18 20 23 25 28 32 36 39 42 45 48 50 51 52
41 42 42 40 39 39 38 36 35 34 34 33 31 30 28 27 25 24 22 21 19 17 16 15 14 13 13 13 13 14 16 20 22 23 27 31 35 37 41 44 46 48 49
41 41 41 40 39 38 37 36 34 33 33 32 31 30 28 26 25 24 22 20 18 17 15 14 13 12 11 10 11 13 14 17 20 22 25 28 31 34 37 40 43 46 48
41 41 40 39 38 37 36 35 34 33 32 31 30 29 27 26 24 23 21 19 18 17 15 14 13 11 9 8 9 11 13 14 17 20 22 25 27 30 33 37 39 43 46
40 39 38 38 37 36 35 35 33 32 31 30 28 27 26 25 23 22 20 18 17 16 15 13 12 10 8 7 8 9 11 13 15 18 20 23 26 28 30 33 36 38 42
39 38 37 37 37 36 35 34 32 31 30 28 27 26 24 23 22 20 19 18 17 16 15 13 11 9 6 4 5 7 9 12 14 17 19 21 23 26 28 30 32 35 37
38 37 36 36 36 35 34 33 31 30 28 27 26 24 23 22 21 20 19 18 16 15 14 13 11 8 5 3 3 4 7 10 13 16 18 20 22 24 26 29 31 33 35
38 37 36 36 35 34 32 31 29 28 27 26 24 23 22 21 20 19 18 18 16 15 13 12 10 8 5 3 2 3 6 8 11 14 16 18 19 20 22 25 28 30 32
38 37 36 35 34 33 31 30 28 27 25 24 22 21 21 20 19 18 17 16 15 14 13 11 9 7 5 3 1 1 4 7 9 12 14 17 18 19 20 22 26 28 29
37 36 35 33 32 31 30 28 27 25 24 22 21 20 19 19 19 18 16 15 14 13 11 10 8 7 5 3 1 1 3 6 8 10 12 15 17 18 18 20 23 26 27
37 35 34 33 31 30 28 27 25 24 22 20 19 18 18 17 17 16 15 14 13 11 10 9 7 6 4 3 1 1 3 5 7 9 10 13 15 17 18 20 22 24 26

GEFSGL_500_meanwind_114.txt.gz
Wind_Speed
24 26 27 28 28 28 29 29 30 31 32 32 32 33 33 32 33 33 34 34 34 35 36 36 37 38 39 40 41 41 42 42 41 42 42 42 41 41 42 42 42 43 44
25 26 27 28 29 29 30 30 31 32 33 33 34 34 33 33 34 34 33 33 34 34 35 35 35 36 38 39 40 41 41 42 42 42 42 42 42 42 42 42 43 44 44
26 27 28 29 30 31 32 33 33 34 35 35 35 34 34 34 34 34 33 33 33 33 34 34 34 35 35 36 37 39 40 41 41 42 42 43 43 43 44 43 42 43 44
27 28 29 31 32 32 34 34 35 36 36 36 35 35 34 34 34 33 33 32 32 32 32 33 33 34 34 35 36 37 38 39 40 41 42 43 43 43 44 44 44 44 43
28 29 31 32 33 34 35 36 36 37 37 36 36 36 35 35 34 33 32 32 31 31 31 31 31 32 33 34 35 36 37 38 39 40 41 43 43 43 44 44 44 44 44
28 30 31 32 34 35 36 37 37 37 37 37 37 36 36 35 33 32 32 31 30 30 29 29 30 30 31 32 34 35 36 37 38 40 41 42 43 44 44 45 45 45 45
29 31 32 33 35 36 38 38 38 38 38 38 37 36 35 34 34 32 31 30 29 29 28 28 28 28 28 30 32 33 35 37 38 39 41 42 42 43 44 45 46 46 45
30 32 33 34 36 37 38 39 39 39 39 38 38 37 35 34 33 32 31 29 29 28 28 27 27 27 27 28 29 30 32 35 37 38 40 42 43 43 44 45 45 46 45
32 33 35 36 37 38 39 39 39 40 39 39 38 37 35 34 33 32 31 30 29 28 27 26 26 26 26 27 29 30 31 33 35 37 38 41 42 43 44 45 45 45 46
33 34 36 37 38 39 40 40 40 40 40 40 38 37 35 34 33 32 31 29 28 27 26 26 26 26 26 27 28 29 31 32 34 36 38 40 42 43 44 44 45 46 46
33 35 37 38 38 39 40 40 41 41 41 40 38 36 35 34 33 31 30 29 28 27 26 26 26 26 26 27 28 29 30 31 33 34 36 38 40 42 43 44 45 45 45
34 36 37 38 39 40 40 41 41 41 40 39 38 36 34 34 33 32 30 30 29 27 26 26 26 25 26 26 27 28 29 30 31 33 34 35 37 39 41 43 45 45 45
35 36 37 39 40 40 41 41 41 41 40 39 37 36 35 34 33 32 30 29 28 26 26 26 25 25 24 24 25 26 27 28 30 31 33 34 36 38 40 42 44 45 45
36 38 38 39 41 41 41 41 42 41 40 39 37 36 35 34 32 31 29 28 26 25 25 25 24 23 22 22 22 22 24 25 27 29 31 33 34 36 38 40 42 43 44
38 39 39 40 41 41 41 42 42 41 40 38 37 36 35 33 31 30 29 27 26 25 24 23 23 21 20 19 19 19 20 21 23 25 27 29 31 33 35 37 39 41 43
39 39 39 40 41 42 42 42 41 41 40 38 37 36 34 32 30 29 28 26 26 25 24 22 21 20 19 18 17 17 17 17 19 22 24 26 28 30 32 35 37 39 40
40 40 40 41 42 42 42 42 41 41 40 38 36 35 33 31 29 28 27 26 25 24 23 21 20 19 18 17 16 15 15 16 16 19 21 24 25 27 30 32 35 37 37
40 40 41 42 43 43 43 42 41 40 39 38 36 34 32 31 29 27 26 25 24 24 22 21 20 19 17 16 15 14 14 14 14 16 19 21 23 25 27 30 33 35 36
40 41 41 42 43 43 42 42 41 40 39 37 35 34 33 31 29 27 26 25 24 23 22 21 20 18 17 15 14 13 12 12 12 14 16 19 21 23 25 27 30 33 34
41 42 42 42 42 42 41 41 41 39 38 36 35 34 32 30 28 27 25 24 23 22 21 21 20 18 16 15 13 12 11 10 10 11 14 17 19 21 22 24 27 29 31
42 42 42 42 42 42 42 41 40 38 37 36 34 33 31 29 28 26 24 23 22 21 21 20 19 17 15 14 12 11 10 9 9 9 11 13 16 18 20 22 25 27 28
43 43 43 43 42 42 41 40 39 38 36 35 33 32 30 29 27 26 24 22 21 21 20 20 18 16 15 12 11 10 9 8 8 8 9 11 14 16 17 20 22 24 25
44 44 44 43 42 42 41 39 38 36 35 34 33 31 29 27 26 25 23 21 20 20 20 19 17 16 14 11 10 10 9 8 8 9 9 10 12 14 16 18 20 22 23
44 44 44 43 43 42 40 39 37 35 34 33 32 30 28 27 25 23 22 20 19 19 18 18 17 15 13 11 10 9 9 9 8 8 8 9 11 12 14 16 18 20 22
45 44 44 43 42 41 39 37 36 34 32 31 30 29 27 26 24 22 21 19 18 18 18 17 16 14 13 12 11 10 9 9 8 7 7 8 9 11 13 15 17 19 21
45 44 44 42 41 40 38 36 34 32 31 30 29 27 25 24 23 21 20 19 18 17 17 16 15 13 12 11 11 10 9 9 8 7 7 8 9 10 11 13 16 17 19

GEFSGL_500_meanwind_120.txt.gz
Wind_Speed
14 16 18 19 21 22 23 24 25 25 27 28 29 30 30 30 30 29 29 29 29 30 31 31 31 32 33 34 35 36 38 39 40 42 45 46 46 46 46 46 46 46 46
14 16 18 20 22 23 24 25 26 27 28 29 30 31 31 31 31 30 30 30 30 30 30 31 31 32 33 34 34 35 36 38 39 41 44 46 47 47 48 48 47 46 47
15 17 19 21 23 25 26 27 27 28 29 30 31 31 32 32 31 31 31 30 30 30 31 31 31 31 31 33 34 35 36 37 38 38 41 45 46 48 48 49 49 48 47
17 18 20 22 24 26 27 29 29 30 31 32 33 33 33 33 32 32 31 31 31 31 31 30 30 30 30 31 32 33 35 36 37 38 39 41 44 46 47 48 49 49 49
18 19 21 23 25 27 29 30 31 32 33 34 34 34 34 34 33 33 32 32 32 32 31 30 29 29 30 31 31 32 33 35 36 37 38 39 42 44 46 47 49 49 49
19 21 23 25 26 28 30 31 32 33 34 35 35 35 35 35 34 34 33 32 32 31 31 30 29 29 29 29 30 30 31 33 35 36 37 37 39 41 43 45 47 48 48
21 22 24 26 28 29 31 32 33 34 35 36 36 36 36 35 35 34 34 33 32 31 30 30 29 29 28 28 28 29 30 31 32 33 35 36 38 40 41 43 45 47 47
23 24 26 28 29 30 31 33 34 35 35 36 36 36 36 36 35 35 34 33 32 31 30 29 29 28 28 28 27 27 28 29 30 31 32 34 36 39 40 41 43 45 46
24 25 27 28 29 30 32 33 34 35 36 37 37 37 37 36 36 35 34 33 32 31 30 29 28 28 27 27 27 27 27 28 28 29 30 33 34 36 38 40 42 43 45
25 27 28 29 31 32 33 35 36 37 37 37 38 38 38 37 36 36 35 33 32 31 30 29 28 27 27 27 26 26 26 27 28 29 30 31 33 35 37 38 40 42 44
26 27 29 30 31 33 34 36 36 37 37 37 38 38 38 38 37 36 34 32 31 30 29 28 27 27 26 26 26 26 26 27 28 29 30 31 33 34 36 37 39 41 42
28 29 30 31 33 34 35 36 37 38 38 38 38 39 39 38 37 36 34 32 30 30 29 28 27 26 26 26 26 26 26 27 28 28 30 31 33 34 36 38 39 41 42
29 30 31 33 34 35 36 36 37 38 38 38 39 39 39 38 37 35 33 32 30 29 29 28 27 26 26 25 25 25 25 24 25 26 28 30 31 33 36 38 39 40 41
30 32 33 34 35 36 37 37 37 38 39 39 40 40 39 39 37 35 33 32 30 29 28 27 27 26 25 24 24 24 23 23 23 24 25 27 29 31 34 36 38 40 41
32 33 34 35 36 37 37 38 39 39 39 39 40 40 39 38 37 36 34 32 31 29 28 27 26 26 25 24 23 22 22 21 21 22 23 25 27 29 32 34 37 39 40
33 34 35 36 37 37 38 39 40 40 39 40 40 40 39 38 37 35 34 32 30 28 27 27 26 25 24 23 22 21 21 21 20 21 22 23 25 27 29 31 34 37 39
34 35 36 37 37 38 39 39 39 40 40 40 40 40 39 38 36 35 33 31 29 28 27 26 25 24 23 22 21 20 19 19 19 19 20 21 23 24 27 29 31 34 37
35 35 36 37 38 39 39 40 40 41 40 40 40 39 38 37 36 35 33 30 28 27 26 25 24 23 23 21 19 18 17 17 17 17 17 18 20 21 24 26 28 31 34
36 37 37 38 39 40 40 41 41 41 41 41 40 39 38 37 36 34 32 29 28 26 25 24 23 22 21 20 19 18 17 16 15 15 15 16 17 19 21 23 25 28 30
37 38 39 40 40 40 41 41 42 41 41 41 40 40 39 37 35 33 31 28 26 25 24 23 22 22 21 20 19 17 16 15 15 13 12 13 14 15 18 20 22 25 27
39 40 41 41 41 42 42 42 42 42 42 41 41 39 38 36 34 32 30 28 26 25 23 22 22 21 21 20 19 17 16 15 14 12 11 11 12 13 15 17 20 23 25
40 41 42 42 43 43 43 43 43 42 42 41 40 38 37 34 32 30 28 27 25 24 23 22 21 21 20 19 18 17 16 15 13 11 11 11 11 12 14 16 18 21 23
42 42 43 43 44 44 44 43 43 43 42 40 38 36 35 32 31 29 27 26 25 23 22 21 21 20 19 18 17 16 15 14 12 12 11 11 11 11 13 14 17 19 21
44 44 44 45 45 45 44 44 43 42 40 38 37 35 33 31 30 28 26 25 24 22 22 21 20 19 17 17 16 16 14 13 11 11 11 11 10 10 11 12 15 17 19
45 45 45 45 45 44 44 43 42 40 39 37 35 34 32 31 29 28 27 25 23 22 21 20 19 18 17 17 16 15 14 13 12 11 10 11 10 10 10 11 13 16 18
46 46 46 46 45 44 43 42 41 39 38 36 35 33 31 30 29 27 26 24 22 21 20 19 19 18 17 16 15 14 13 12 11 10 10 10 10 10 10 11 12 14 17

GEFSGL_500_meanwind_126.txt.gz
Wind_Speed
4 5 6 7 10 12 14 16 18 19 21 22 23 24 25 25 26 26 27 27 27 28 28 28 28 29 29 30 30 31 32 33 34 35 38 39 41 42 44 45 47 48 48
5 6 7 9 12 14 17 18 20 21 23 24 25 26 26 27 27 28 28 29 29 29 29 29 29 29 29 30 31 31 32 32 33 34 37 38 40 41 43 44 46 48 49
8 9 10 12 14 16 18 20 21 23 24 25 26 27 28 28 29 29 30 30 30 30 30 30 30 30 30 30 30 31 31 32 32 33 36 38 40 41 42 43 45 47 49
10 11 13 14 16 18 20 21 23 24 25 27 27 28 29 30 30 31 31 31 31 31 31 31 31 31 31 31 30 31 31 31 32 33 34 36 38 41 42 43 44 46 48
12 13 15 16 18 19 21 23 24 25 26 27 29 30 30 31 31 32 32 33 33 33 33 32 32 31 31 31 31 31 31 31 32 32 33 34 36 39 41 42 43 45 46
14 15 16 18 19 21 22 24 25 26 27 29 30 31 32 32 32 33 34 34 34 34 34 33 33 32 32 32 31 31 31 31 31 31 32 33 34 37 39 40 42 44 45
16 17 18 19 21 22 24 25 26 28 29 30 31 32 33 33 33 34 35 35 35 35 34 33 33 33 32 32 32 31 31 31 31 31 31 32 34 36 38 39 40 41 43
17 18 19 21 22 24 25 26 28 29 30 31 33 33 34 34 35 35 36 36 36 35 34 34 33 33 32 32 32 31 31 31 31 30 30 31 33 35 37 39 40 41 42
19 20 21 22 24 25 27 28 29 30 31 32 33 34 34 35 36 36 36 37 36 36 35 35 34 33 33 33 32 32 31 31 31 31 31 31 32 34 35 35 37 39 40
20 21 22 24 26 27 28 29 31 32 33 34 34 35 36 36 37 37 37 37 37 36 36 35 34 34 34 34 33 32 31 31 31 31 31 31 31 32 33 34 35 36 38
22 23 24 26 27 29 30 31 32 33 34 35 35 36 36 37 37 37 38 38 37 36 36 36 35 35 34 34 33 32 31 30 30 30 30 31 31 31 32 33 34 35 36
24 25 26 27 29 30 32 33 33 34 35 36 36 37 37 38 38 38 38 38 38 37 37 37 36 35 34 33 32 31 30 30 29 29 29 29 30 30 31 32 32 33 34
25 26 27 29 30 32 33 34 35 35 36 37 38 38 39 39 39 39 39 39 39 38 37 37 36 35 33 32 32 31 30 30 29 29 28 28 28 29 30 30 31 31 32
26 27 29 31 32 34 35 36 36 36 37 38 39 39 40 40 40 40 40 40 39 39 38 37 36 34 33 32 31 31 29 28 28 27 27 27 27 27 28 29 30 30 30
28 30 31 33 34 35 36 37 37 38 39 39 40 41 41 40 41 41 41 40 40 39 38 37 35 34 33 31 31 29 28 27 26 25 25 25 25 26 26 27 28 29 29
31 31 33 34 35 36 37 38 38 39 40 41 41 41 41 41 42 42 42 41 40 39 38 36 35 33 32 31 30 29 27 26 26 25 25 24 24 24 24 25 26 27 28
32 33 34 35 36 37 38 38 39 40 41 42 42 43 43 43 43 43 42 42 41 40 38 37 35 33 31 30 30 29 27 26 25 24 23 22 22 22 23 24 25 26 27
34 35 36 37 38 38 39 40 41 42 42 42 43 44 44 44 44 44 43 42 42 40 39 36 34 32 31 30 29 28 26 25 24 24 23 21 20 20 21 21 23 24 25
35 36 37 38 39 40 41 42 43 44 44 44 44 45 45 45 45 44 44 43 41 40 38 35 33 31 30 30 28 27 25 24 23 22 22 21 21 21 20 20 21 22 23
37 38 38 39 40 41 43 44 45 45 45 46 46 46 46 46 45 45 44 43 41 38 36 34 32 31 30 29 28 26 25 24 23 22 21 21 20 20 19 19 19 20 21
39 39 40 41 42 43 44 45 46 47 47 48 48 47 47 46 46 45 43 41 39 37 34 33 32 30 29 27 26 25 24 23 22 21 21 21 20 19 19 19 19 19 20
40 41 42 44 45 45 46 47 48 49 49 49 49 48 48 47 46 44 41 40 38 36 33 32 31 29 28 27 26 25 24 23 22 21 20 20 19 19 19 19 19 19 19
42 43 44 46 46 47 47 49 49 50 50 49 49 48 47 46 45 42 40 38 36 34 33 31 30 29 27 26 25 25 23 22 21 20 20 19 19 19 19 19 18 18 19
44 45 46 47 48 48 49 50 50 50 49 49 48 47 46 45 43 41 39 37 35 33 32 31 29 28 26 25 24 23 22 22 21 20 19 19 18 18 18 17 16 16 17
45 46 47 48 49 49 49 50 49 49 48 47 46 45 44 43 41 40 38 36 34 32 31 29 27 26 24 23 22 21 21 20 19 18 17 18 17 16 16 15 15 14 14
47 48 48 49 49 49 49 48 47 47 46 45 44 42 41 40 39 37 36 34 32 30 27 26 25 24 23 22 21 20 19 18 18 17 17 16 16 15 14 14 13 13 13

GEFSGL_500_meanwind_132.txt.gz
Wind_Speed
8 8 7 7 8 8 9 10 11 12 13 14 15 16 17 18 19 20 20 20 21 21 22 22 23 23 24 25 25 26 26 27 28 29 31 32 33 34 35 37 39 41 43
9 9 9 9 10 10 11 12 13 14 15 15 17 18 18 19 20 21 22 22 22 23 23 24 24 24 25 25 26 26 27 28 29 29 31 32 33 35 35 37 39 41 43
10 10 11 11 12 13 14 14 14 15 16 17 18 19 20 21 22 23 23 23 24 25 25 25 25 26 26 27 27 27 28 29 29 30 31 32 33 34 36 37 38 40 42
11 12 13 14 14 15 15 16 16 16 18 19 20 20 21 22 23 24 24 25 26 26 27 27 27 27 28 28 28 29 29 30 30 30 31 31 32 33 35 36 38 40 41
13 13 14 15 16 16 17 17 17 18 19 20 21 22 23 24 25 25 26 27 27 28 29 29 29 29 29 29 30 30 30 31 31 31 31 31 32 33 34 35 36 38 40
15 15 16 17 17 17 17 18 19 20 21 21 22 23 24 25 26 27 27 28 29 30 30 30 30 30 30 30 30 31 31 31 31 31 31 32 33 33 34 35 36 37 38
17 17 18 18 18 18 19 19 20 21 22 23 24 25 25 26 27 28 29 30 31 31 32 31 31 31 31 31 31 31 31 31 31 31 32 32 33 33 34 34 36 37 37
19 19 19 19 19 20 20 21 22 23 24 24 25 26 27 28 29 29 30 32 32 32 32 32 32 32 32 32 32 32 32 32 32 32 32 33 33 33 34 34 34 35 37
20 20 20 20 21 21 22 22 23 24 25 26 26 27 28 29 30 31 33 33 33 33 33 33 33 33 33 33 34 33 33 33 33 33 33 33 33 34 34 34 35 36 36
22 22 22 23 23 23 23 24 25 26 26 27 28 29 30 31 32 33 34 34 34 34 34 34 34 34 34 34 34 34 34 34 34 34 33 33 33 34 34 34 35 36 36
23 23 24 24 24 24 25 25 26 27 28 29 30 31 32 33 34 35 35 35 35 36 36 35 35 35 35 36 36 36 35 35 35 34 34 33 34 33 33 34 34 35 35
24 25 25 25 25 26 26 27 28 29 30 31 31 33 34 34 35 36 36 36 37 37 37 37 37 37 37 37 37 37 37 36 35 35 34 33 33 33 32 32 32 33 33
25 25 26 26 27 27 28 29 30 31 32 32 33 34 35 36 37 38 38 38 38 38 38 38 39 39 39 39 38 38 37 37 36 34 34 33 32 32 31 31 31 31 31
27 27 27 27 28 29 30 31 32 33 33 34 35 36 37 38 38 39 39 40 40 40 40 40 40 40 40 40 39 38 38 37 35 34 33 32 31 30 30 30 30 30 30
28 28 28 29 29 31 32 32 33 34 35 36 37 38 38 39 40 40 41 41 42 42 42 42 42 42 41 41 40 38 37 36 35 33 33 32 31 30 29 29 28 28 28
29 29 29 30 31 32 33 34 35 37 38 38 39 40 40 41 42 42 43 43 44 44 44 44 43 43 42 41 40 38 37 35 34 33 32 31 30 29 28 28 27 27 26
30 30 31 31 33 34 35 37 37 38 39 40 41 42 43 43 44 45 45 45 45 45 45 45 44 43 42 41 40 38 37 35 34 32 31 30 29 28 27 26 26 26 26
30 31 32 34 35 36 38 38 39 40 41 42 42 43 44 45 46 47 47 47 46 46 46 45 45 43 42 41 39 38 36 34 32 31 30 29 27 26 26 26 25 25 25
32 33 35 37 38 38 39 40 41 42 43 44 45 46 47 47 48 48 48 48 48 47 47 46 44 43 42 40 38 37 35 33 31 30 29 27 26 25 25 25 24 23 23
34 35 37 38 38 39 40 42 43 44 45 46 47 48 49 49 49 49 50 49 48 47 46 45 44 42 41 39 37 35 33 31 30 28 27 26 25 24 24 23 23 22 22
36 38 39 39 40 41 42 43 45 46 47 47 48 49 50 50 50 50 50 49 48 47 45 44 43 42 40 38 35 33 32 30 29 27 26 25 24 24 24 23 23 23 22
39 40 41 41 42 43 44 45 46 47 47 48 49 50 51 50 50 49 48 47 46 45 44 43 41 39 37 35 34 32 31 29 28 27 26 24 24 24 24 23 23 22 22
40 40 41 42 43 44 46 47 48 49 49 50 50 50 50 49 48 47 46 45 44 43 42 41 39 37 35 34 33 31 30 28 27 26 25 24 24 23 23 22 22 22 22
41 42 43 44 45 46 47 48 49 49 49 49 49 49 48 47 47 46 45 44 43 41 40 38 36 34 33 32 31 29 28 27 25 24 24 24 23 22 22 22 22 21 20
42 43 44 45 45 46 47 48 49 49 49 49 48 48 47 47 46 45 44 42 40 39 38 36 34 32 30 29 27 26 26 25 24 23 23 23 22 21 20 20 20 20 19
43 44 45 45 46 47 48 49 49 49 48 48 48 47 46 46 44 43 41 39 38 36 35 34 32 30 28 26 25 24 23 23 22 21 20 20 20 19 18 18 18 18 18

GEFSGL_500_meanwind_138.txt.gz
Wind_Speed
8 8 8 8 8 7 7 8 8 9 11 12 13 14 15 16 17 18 19 19 20 21 21 21 22 23 23 23 23 24 24 24 24 25 25 25 26 27 28 29 29 30 31
8 8 8 8 8 8 9 9 10 12 13 14 14 15 16 17 18 19 20 20 21 22 22 22 23 24 25 25 24 25 25 25 25 26 26 27 27 27 28 29 30 31 32
9 9 9 9 10 10 10 11 12 14 14 15 16 17 18 19 20 20 21 22 22 22 23 24 24 25 26 26 26 26 26 26 26 27 27 28 28 29 29 29 31 32 33
10 10 10 10 10 11 12 13 14 15 15 16 18 18 19 20 21 21 22 23 23 23 24 25 26 26 27 27 27 27 27 27 27 27 28 29 29 30 30 30 31 32 33
12 11 11 11 12 12 13 14 15 16 16 18 19 19 20 21 22 23 23 24 24 25 25 26 27 28 28 28 28 28 28 28 28 28 29 29 30 30 31 31 31 32 33
13 13 12 13 13 14 15 16 17 17 18 19 20 21 22 22 23 23 24 24 25 26 27 28 28 29 29 29 29 29 29 29 29 29 30 31 31 31 31 32 32 32 33
14 14 14 14 15 16 17 18 18 19 20 21 22 23 23 23 24 25 25 26 27 27 28 29 30 30 30 29 29 29 30 30 31 31 31 32 32 33 33 33 33 34 34
16 16 16 16 17 18 19 19 20 21 22 23 23 24 24 25 25 26 26 27 28 29 30 31 31 31 31 30 30 30 31 32 32 33 33 33 33 34 34 34 34 34 34
17 17 18 18 18 19 20 21 22 23 23 24 25 25 26 26 26 27 28 28 29 30 31 32 32 32 32 32 32 32 33 33 33 34 34 34 35 35 36 35 35 35 35
18 19 19 19 20 21 22 23 24 24 25 26 26 27 27 27 27 28 29 30 31 31 32 33 33 34 34 34 34 34 34 35 35 36 36 36 36 36 36 37 36 36 36
20 20 21 21 22 23 24 25 25 25 26 28 28 28 28 28 29 30 31 32 33 33 34 34 35 35 36 37 36 36 36 37 37 38 38 38 37 37 37 37 37 37 36
21 21 22 23 24 24 25 26 27 27 28 28 29 29 29 30 31 32 33 34 34 35 36 36 37 38 38 38 38 38 38 39 39 39 39 38 38 38 37 37 36 36 36
23 24 24 25 26 26 27 28 28 28 29 30 30 30 31 32 33 34 34 35 35 36 37 38 39 39 39 39 39 39 40 41 41 41 40 39 39 38 38 37 36 36 36
25 26 27 27 28 28 29 29 29 30 31 32 32 32 33 34 34 35 36 37 37 38 39 39 40 41 41 40 40 41 42 42 42 41 41 40 39 38 37 37 36 36 36
27 28 28 29 30 30 30 31 31 32 32 32 33 34 35 36 37 38 38 39 39 40 41 41 42 42 42 42 42 42 42 42 42 41 41 40 39 38 37 36 36 35 35
30 30 30 31 32 32 32 32 33 34 34 35 36 37 37 38 39 39 40 41 42 43 44 44 44 44 45 44 44 44 44 43 43 42 41 40 39 38 37 36 36 35 34
31 32 33 34 34 34 34 34 34 35 36 36 37 38 39 40 40 41 42 43 44 45 45 46 46 47 46 46 45 45 44 44 43 42 41 40 39 37 36 35 35 34 32
32 33 34 35 35 36 36 37 38 39 38 38 39 40 40 40 41 43 44 45 46 46 47 47 48 47 47 46 46 45 44 43 42 41 40 39 38 37 35 34 34 32 31
34 35 36 36 37 37 38 38 39 40 40 40 41 41 41 42 43 44 46 46 47 48 48 48 47 46 46 46 45 44 43 42 41 40 39 37 36 35 33 32 32 31 30
34 36 37 37 37 37 37 38 40 40 41 42 42 42 43 43 45 46 47 48 48 48 48 47 46 46 45 45 45 43 42 41 40 39 37 36 34 33 32 31 30 29 28
34 34 34 35 36 36 37 38 40 41 41 41 42 42 44 45 46 47 48 48 48 48 47 46 46 46 45 45 44 42 41 40 39 37 36 34 32 31 31 30 28 28 28
34 34 35 35 36 37 38 40 40 41 42 43 44 45 46 47 47 48 48 48 48 48 47 46 45 45 44 43 42 40 40 39 38 36 34 33 32 31 30 29 28 27 27
34 34 34 36 37 39 40 40 40 42 43 45 46 46 46 47 47 48 48 47 47 46 45 45 44 43 42 41 40 39 38 37 36 34 33 31 30 29 28 27 27 27 26
36 36 37 37 38 40 41 41 41 43 44 45 46 46 46 46 46 46 46 46 45 45 45 44 43 40 40 39 38 37 36 36 34 33 31 29 28 28 27 26 25 26 25
37 38 38 39 39 41 42 43 43 44 44 45 45 45 46 46 46 46 45 45 45 45 43 42 41 40 38 37 36 36 36 35 32 30 29 28 27 26 25 24 24 24 24
38 38 39 40 40 41 42 42 43 44 45 45 45 46 46 45 45 44 44 44 44 43 42 41 40 39 37 36 35 35 34 33 30 28 27 25 23 23 23 22 22 22 21

GEFSGL_500_meanwind_144.txt.gz
Wind_Speed
13 13 12 12 12 11 11 10 9 9 7 7 7 7 8 8 9 10 11 11 12 13 14 14 15 15 16 17 17 17 18 18 18 18 18 19 19 20 20 21 22 22 23
12 13 13 12 12 12 11 10 10 10 9 8 8 9 9 10 10 11 12 13 13 14 15 15 16 16 17 18 18 18 18 19 19 19 20 20 21 21 22 23 23 24 25
12 13 13 12 12 12 11 11 10 10 10 10 10 10 11 11 11 12 13 14 15 15 16 16 17 17 18 19 19 20 20 20 21 21 22 22 22 23 24 25 26 26 27
11 12 12 12 12 12 12 12 11 12 12 12 11 12 12 12 13 14 15 15 16 16 17 18 18 19 19 20 20 21 21 22 22 22 23 23 23 24 25 26 27 28 29
12 12 12 13 13 13 13 13 13 13 13 13 14 14 14 15 15 16 16 17 18 18 18 19 19 20 21 21 22 22 23 23 24 24 24 25 26 26 27 27 28 29 30
14 14 14 14 14 14 15 15 15 15 15 15 15 15 16 17 17 18 18 19 19 20 20 21 21 22 22 23 23 24 24 25 25 26 27 27 28 29 29 30 30 30 31
15 15 15 15 15 16 16 16 17 17 17 17 17 17 18 18 19 20 20 20 21 21 22 22 23 23 24 24 25 26 26 27 27 28 28 29 30 30 31 31 32 32 33
15 16 16 16 17 17 18 18 19 18 18 18 19 19 20 20 21 21 22 22 23 23 23 24 24 25 25 26 26 27 28 29 30 30 31 31 31 32 33 33 34 35 35
16 16 17 18 18 18 19 19 20 20 20 20 20 20 21 22 22 23 23 24 24 25 26 26 27 27 27 28 28 29 30 31 32 32 33 33 33 34 35 36 37 37 37
16 17 18 19 20 20 21 21 21 22 22 22 22 22 22 23 24 25 25 26 27 27 27 28 29 30 30 30 31 31 32 33 34 34 35 35 36 37 38 39 39 40 39
19 19 20 21 21 21 21 22 22 22 23 24 24 24 24 25 26 26 27 28 29 29 29 30 31 32 32 33 33 34 35 35 36 36 37 37 38 39 40 41 41 42 42
20 21 21 22 23 23 23 24 24 24 25 26 26 26 26 27 28 29 30 30 30 31 31 32 33 33 34 35 36 37 38 38 38 39 39 39 40 41 42 42 43 44 43
22 23 23 24 24 25 26 27 27 27 27 27 28 28 28 29 30 30 31 31 32 33 34 34 35 36 37 38 39 39 40 41 41 41 41 41 42 42 43 43 44 44 44
23 24 25 26 27 27 27 28 28 28 29 29 29 30 30 31 32 32 31 32 32 34 35 36 38 38 39 40 41 42 44 44 44 44 44 44 44 44 44 45 45 45 44
25 26 26 28 29 30 30 30 29 29 30 31 32 32 32 33 33 34 34 35 36 37 38 39 40 41 42 43 43 44 46 47 47 47 47 46 46 46 47 47 46 45 44
26 26 27 27 29 30 31 31 32 32 33 34 34 33 33 34 35 36 37 38 39 40 41 41 42 43 44 44 46 47 48 49 49 49 48 48 48 48 48 47 47 45 44
26 27 28 29 30 31 32 33 33 33 33 34 34 35 36 37 38 39 40 41 41 42 42 43 44 44 45 46 48 49 49 49 49 49 48 48 48 47 47 46 45 44 43
28 28 29 29 30 31 32 33 34 34 35 36 37 38 39 39 40 40 41 41 41 42 43 45 45 46 48 49 50 50 50 49 49 49 48 48 47 46 46 45 44 43 42
28 29 29 30 31 31 32 33 35 36 38 39 39 40 40 41 41 42 42 43 43 44 46 47 47 48 49 50 50 49 49 48 48 48 48 47 46 46 45 44 43 41 40
30 30 30 30 30 31 33 34 36 37 39 40 41 41 40 41 42 43 44 44 45 46 47 47 48 49 50 50 49 48 48 47 47 46 46 45 45 44 44 42 41 40 39
30 30 31 31 32 33 34 36 37 38 39 40 40 41 42 42 43 44 45 46 46 47 48 48 48 48 48 48 47 47 47 46 46 45 44 44 43 43 42 40 39 38 37
31 32 33 33 34 34 35 36 37 38 40 40 40 42 43 44 44 45 46 46 47 47 48 47 47 47 48 47 47 47 46 46 45 44 43 42 42 41 39 38 37 36 36
31 32 33 33 34 35 35 36 38 39 41 42 42 43 45 45 45 46 46 47 47 46 46 46 46 47 46 46 46 45 44 43 43 43 41 41 39 38 37 36 35 34 33
31 32 33 34 35 36 37 38 39 41 42 43 44 45 45 46 46 45 45 45 44 43 44 44 45 45 45 44 44 43 43 42 41 40 39 38 36 35 34 33 32 31 29
32 34 34 35 36 37 37 39 40 41 43 43 43 44 44 44 44 44 43 42 42 42 43 44 44 44 43 42 42 41 41 40 39 38 37 35 34 32 31 29 29 27 26
34 34 35 35 36 37 39 40 40 41 41 42 42 43 42 42 42 42 42 42 42 43 43 43 43 43 42 41 40 39 38 37 37 35 33 31 30 29 28 26 25 24 23

GEFSGL_500_meanwind_150.txt.gz
Wind_Speed
20 20 19 19 18 16 15 15 14 13 12 12 12 11 11 11 11 11 11 11 11 12 12 13 14 14 15 15 15 15 16 16 17 17 18 18 19 20 20 21 21 22 22
19 19 19 19 18 17 15 15 14 13 13 13 13 13 13 13 13 13 13 13 14 14 15 15 15 15 15 16 16 17 17 17 18 18 19 20 20 21 22 22 23 23 24
18 19 19 18 18 17 16 15 15 14 14 14 14 15 15 15 15 15 15 16 16 16 16 17 17 16 17 17 18 18 18 19 19 20 20 21 22 23 23 24 24 25 25
18 19 19 19 18 17 16 16 15 15 15 15 15 16 16 16 17 17 17 18 18 18 18 18 18 18 19 19 20 20 20 20 21 22 22 23 24 25 25 26 27 27 28
16 18 19 20 19 18 17 17 17 16 17 16 16 17 18 18 18 19 19 19 20 20 20 20 20 20 21 21 22 22 22 23 24 24 25 26 27 27 28 28 29 30 30
17 17 18 18 19 19 18 18 18 17 17 17 17 18 19 20 20 20 21 21 21 22 22 22 22 22 22 23 23 24 24 25 26 27 28 29 29 30 30 30 31 31 32
17 17 17 17 17 17 17 17 17 18 18 18 19 19 20 21 22 22 23 23 23 23 23 23 24 24 24 25 25 26 26 27 28 30 30 31 31 32 32 33 34 34 34
17 17 17 17 17 17 18 18 18 19 19 20 20 21 22 23 23 24 24 25 25 25 25 25 26 26 27 27 28 29 30 31 32 33 33 33 33 34 34 35 36 36 36
18 19 19 19 19 19 20 20 20 21 21 21 22 23 24 25 25 25 26 26 27 27 27 28 28 28 29 30 31 32 33 34 35 36 36 36 36 37 37 38 38 38 38
19 19 20 20 21 21 21 21 22 22 23 24 24 24 25 26 26 27 28 28 28 29 29 30 30 31 32 33 33 34 35 36 37 38 38 38 39 40 41 41 41 41 41
21 21 21 22 22 23 23 23 23 24 24 25 25 26 27 27 28 29 29 30 30 31 32 32 33 34 35 36 36 37 38 39 39 40 40 41 42 42 43 44 44 44 44
21 22 22 23 24 24 24 25 25 25 26 26 27 28 29 30 30 30 31 32 32 33 34 35 36 36 37 38 39 40 41 42 42 42 43 43 44 45 45 46 47 47 48
22 23 23 24 25 26 26 27 26 27 28 28 29 30 31 32 32 33 33 34 34 35 36 37 38 39 40 41 42 44 44 45 45 45 46 46 47 48 48 49 49 50 49
24 24 25 26 25 26 27 27 27 28 29 30 31 32 33 34 34 35 35 36 36 37 38 40 41 42 43 43 45 46 46 46 47 48 48 49 50 50 51 52 52 52 52
24 24 25 25 26 26 27 29 30 30 31 31 32 33 34 35 36 37 37 38 38 40 40 42 44 45 45 45 45 46 47 48 50 51 51 52 53 53 53 53 53 53 53
26 26 27 28 28 29 29 30 31 31 31 31 32 34 35 36 38 38 38 39 41 42 42 43 44 45 45 46 47 48 50 51 51 52 53 54 54 54 53 53 53 52 52
27 28 28 29 29 30 31 31 31 31 32 33 33 34 35 37 37 38 39 40 42 43 44 44 45 46 48 49 50 51 52 52 53 54 54 54 54 53 52 51 51 51 50
29 29 30 30 30 31 31 31 32 32 33 34 34 35 36 36 38 39 41 42 43 44 45 46 47 48 49 50 51 52 52 52 52 53 53 52 52 51 51 50 49 49 49
30 30 30 31 32 32 32 33 33 34 35 36 37 38 38 39 40 42 44 44 45 46 46 47 48 49 51 51 52 52 52 52 53 52 51 51 50 50 49 49 49 48 48
30 31 32 32 33 33 33 34 35 36 37 38 39 40 41 42 42 44 45 45 46 46 47 49 50 50 52 53 53 52 52 52 52 51 50 50 49 49 49 49 48 48 47
30 30 31 32 33 34 35 35 36 37 38 39 40 41 42 43 44 44 45 46 47 48 49 49 50 51 52 52 51 51 50 51 51 50 49 49 49 49 48 48 47 46 45
31 31 32 33 34 35 36 37 38 38 38 40 41 42 42 43 44 46 47 48 48 48 49 49 49 49 49 49 50 49 50 50 50 49 49 48 47 47 47 46 45 44 43
32 32 33 34 35 36 37 37 38 39 41 42 43 43 44 44 45 47 47 48 48 48 48 49 49 49 49 49 50 49 49 49 49 49 48 46 46 45 44 43 42 40 39
33 34 35 36 37 37 37 38 39 40 40 41 42 43 43 45 45 46 47 47 48 48 49 49 49 49 48 48 48 48 49 49 48 47 45 44 43 42 41 39 38 37 36
34 35 36 36 37 38 39 39 40 41 42 43 43 44 45 45 46 46 47 47 47 47 48 47 47 47 47 47 47 47 47 46 45 43 42 40 39 38 37 36 34 33 32
33 34 35 37 38 38 39 40 40 41 42 43 44 45 45 45 45 46 47 47 46 46 46 45 45 45 45 44 44 44 43 42 41 40 38 37 36 35 34 32 30 29 28

GEFSGL_500_meanwind_156.txt.gz
Wind_Speed
20 22 23 23 23 22 21 20 18 17 15 14 14 13 13 12 12 12 11 12 11 12 12 12 13 13 14 14 14 15 15 16 16 16 17 17 17 18 18 18 19 20 20
19 22 23 22 21 21 20 19 18 17 16 15 15 14 13 13 13 13 13 13 13 14 14 14 14 14 15 15 16 16 16 17 17 18 18 18 19 19 20 20 21 22 22
18 20 22 21 21 21 20 18 17 16 15 15 14 15 14 14 14 15 15 15 15 15 15 16 16 16 16 17 17 17 18 18 19 19 20 20 20 21 22 22 23 24 25
18 19 20 21 21 20 19 18 18 17 16 15 15 16 16 16 16 16 16 16 17 17 17 17 18 18 18 19 19 19 20 20 20 21 21 22 22 23 24 25 26 26 27
16 18 20 21 20 20 19 19 18 18 17 17 17 17 17 17 17 17 18 18 18 19 19 20 20 20 21 21 21 22 22 23 23 23 24 24 25 26 27 28 28 29 30
16 17 18 18 18 19 19 19 19 18 19 19 19 19 19 19 19 19 19 20 20 20 21 21 22 22 23 23 24 24 25 25 26 26 27 28 28 29 30 30 31 32 33
16 16 16 17 18 18 20 20 20 19 19 20 20 20 20 20 20 21 20 21 21 22 22 23 24 25 25 26 26 26 27 27 28 29 29 30 31 31 32 33 34 35 36
16 16 17 17 18 18 19 20 21 21 21 21 22 22 21 22 22 22 21 21 22 23 24 25 26 27 27 27 28 28 29 30 31 31 32 33 33 34 35 35 37 38 38
17 17 18 18 18 18 19 20 21 22 22 22 22 23 23 23 24 23 23 24 24 25 26 27 28 29 29 29 30 31 31 32 34 35 35 35 36 37 38 39 39 40 40
18 18 18 18 18 19 19 20 20 21 22 23 23 24 24 24 24 24 25 26 27 28 28 29 30 30 31 32 32 33 34 35 36 37 37 38 39 39 40 41 42 42 42
19 19 18 19 19 19 19 20 21 23 24 25 25 26 26 26 26 27 27 28 29 30 30 31 31 32 33 33 34 35 36 37 38 39 40 41 41 42 43 43 44 45 45
19 19 19 20 20 20 21 22 23 24 24 26 27 28 28 28 28 29 29 30 31 32 32 33 33 34 34 35 37 38 38 39 40 41 42 43 43 43 44 46 47 47 48
20 20 20 20 21 21 22 24 24 25 26 27 28 29 29 29 30 31 31 32 32 33 33 34 36 37 37 38 40 41 42 43 43 44 44 44 45 46 47 49 50 50 50
21 21 21 21 22 22 23 23 25 25 26 26 28 29 30 32 32 33 33 33 33 34 35 36 37 38 40 42 43 43 44 45 45 46 46 46 47 49 50 51 52 52 52
23 23 23 23 23 24 24 24 25 25 27 27 28 30 32 33 34 35 35 35 36 36 37 38 39 40 41 42 44 45 46 46 47 47 48 49 49 50 51 51 51 52 53
24 24 24 24 24 25 26 26 27 27 28 29 31 32 33 33 33 34 35 36 37 38 39 40 40 41 42 44 46 46 47 48 48 48 49 50 51 51 51 52 52 52 52
24 25 25 25 26 26 27 28 29 30 31 32 33 33 34 35 35 36 36 36 37 39 40 41 42 43 44 46 47 47 48 49 49 50 50 50 51 51 51 50 50 50 50
25 26 26 27 27 28 29 30 32 32 33 34 34 35 37 38 38 38 38 38 39 41 42 43 44 45 46 47 49 49 49 50 50 50 50 50 50 49 49 48 49 50 49
26 26 27 28 28 29 30 31 32 33 34 35 35 36 36 37 38 39 40 41 41 43 44 44 46 47 47 48 49 49 50 50 49 49 49 49 49 48 47 48 48 48 48
26 27 28 29 30 31 32 33 33 34 34 34 35 36 37 38 39 40 41 42 43 44 45 46 47 47 48 49 49 49 49 49 49 49 49 49 48 48 48 48 48 47 46
27 28 29 30 32 33 33 34 34 34 35 36 36 36 37 38 40 41 43 44 45 46 46 46 47 48 48 49 49 49 49 49 49 49 49 48 48 48 48 47 47 46 45
28 29 30 30 31 32 33 34 35 35 36 37 37 38 39 40 42 44 44 46 46 46 46 47 47 48 49 49 50 50 50 49 49 48 48 48 48 48 47 45 44 43 42
28 29 30 31 31 32 33 34 35 36 37 38 39 40 40 41 43 43 44 44 44 44 45 46 46 46 47 48 48 47 48 48 47 47 47 46 44 43 43 42 41 40 39
28 29 30 30 31 33 34 35 36 37 38 39 40 40 41 42 42 42 43 43 43 43 44 44 44 45 45 46 46 46 46 46 45 44 44 42 41 41 40 39 38 36 35
27 28 29 30 31 32 34 35 37 38 39 39 39 40 41 41 41 42 42 43 43 44 44 44 44 44 44 44 44 44 43 42 41 41 40 39 39 38 37 36 35 34 33
27 28 30 31 32 33 35 36 37 37 37 38 39 40 40 41 41 41 42 43 43 43 43 43 43 43 43 43 42 41 39 38 38 37 36 35 35 34 34 33 32 31 30

GEFSGL_500_meanwind_162.txt.gz
Wind_Speed
13 14 15 15 16 17 18 18 18 17 17 16 14 13 12 12 12 12 11 11 11 11 11 12 12 13 13 14 14 14 15 15 15 15 15 16 16 16 17 17 17 18 19
13 14 15 15 16 17 19 18 19 18 17 16 15 13 13 13 12 12 12 13 13 13 13 14 14 14 15 15 16 16 16 17 17 17 17 17 17 18 18 19 19 20 21
14 14 15 16 16 17 18 19 19 18 18 17 16 15 15 14 14 13 13 14 14 14 15 16 16 16 17 17 17 18 18 18 18 18 19 19 19 20 20 21 21 22 23
14 14 15 15 16 17 18 17 18 18 18 18 17 16 16 16 15 14 14 15 15 16 17 17 17 18 19 19 19 19 19 20 20 20 20 21 22 23 23 23 24 25 26
14 14 15 15 16 18 17 17 18 18 18 17 16 16 16 16 16 15 15 16 17 18 18 19 19 20 20 21 21 21 21 22 22 23 24 24 24 25 26 27 27 28 28
14 14 15 15 16 17 18 17 17 17 17 16 16 17 17 16 16 16 17 18 18 19 20 20 21 22 22 22 22 23 23 24 25 26 26 26 27 28 29 30 31 31 31
14 15 16 17 17 17 18 18 18 17 17 16 17 16 17 17 18 18 19 19 20 21 21 22 23 23 23 24 25 25 26 26 27 28 29 29 30 30 31 32 33 34 34
14 15 16 17 17 17 17 17 18 18 17 18 18 18 19 20 20 21 21 22 23 23 24 24 25 25 25 25 26 26 28 29 29 30 31 31 33 34 34 35 36 37 37
15 16 16 16 16 16 17 17 17 17 18 19 19 20 21 21 22 23 23 25 25 25 25 26 27 27 28 28 28 29 30 31 32 32 33 34 35 36 37 38 39 39 40
16 16 17 16 16 16 16 16 17 17 18 18 19 21 21 22 23 24 25 26 26 27 27 28 29 30 30 30 30 31 32 33 34 35 35 36 37 37 39 41 42 43 43
16 16 17 17 17 17 17 17 18 18 18 19 19 20 21 22 23 24 25 25 27 28 28 29 30 31 32 32 33 34 35 36 37 37 38 39 40 41 43 44 45 46 45
17 17 17 17 17 17 17 18 19 19 19 20 20 20 21 22 23 24 25 26 26 27 28 29 30 31 32 34 35 36 38 38 40 41 42 42 43 44 45 46 46 46 46
17 17 17 17 18 18 18 19 19 19 19 20 20 21 22 23 24 25 27 27 28 28 30 31 32 33 34 35 37 38 40 41 42 42 42 43 44 45 46 47 47 47 47
18 18 18 18 18 18 19 19 19 20 20 21 22 23 24 25 26 26 28 29 30 30 32 33 34 35 36 37 38 39 41 42 43 44 44 45 46 47 47 48 49 49 49
19 19 19 19 19 19 20 20 21 22 22 23 24 25 26 26 27 27 28 29 31 33 34 34 36 37 38 39 40 41 42 44 45 45 46 47 48 48 48 49 50 50 50
21 21 21 21 22 22 22 22 24 25 25 26 26 27 27 27 27 28 30 31 32 33 34 36 38 39 40 41 41 42 42 43 44 45 46 47 48 49 50 50 51 51 51
22 22 23 23 23 24 24 25 26 26 27 27 27 28 28 29 29 30 31 32 33 35 37 37 38 40 41 42 42 43 43 44 45 46 47 48 49 49 50 50 51 51 50
22 23 24 26 26 26 26 27 28 28 28 28 29 29 30 31 32 33 33 34 35 37 38 39 41 42 43 43 44 44 45 46 47 47 47 48 49 50 51 51 52 51 50
23 24 24 26 27 28 28 28 29 29 29 30 30 31 33 33 34 35 35 37 38 39 40 42 43 43 44 45 45 46 46 47 48 49 49 50 50 51 51 51 51 50 49
25 25 26 27 28 29 29 29 30 31 31 31 32 33 34 35 35 36 38 39 40 41 43 44 44 45 46 46 46 46 47 48 49 49 49 49 50 50 50 50 50 50 50
27 27 28 30 29 29 30 30 30 31 32 33 34 35 35 36 37 39 40 41 42 43 43 44 45 45 46 47 47 47 47 48 48 48 48 48 48 48 48 48 48 48 48
27 28 29 29 29 30 31 31 32 33 34 35 36 36 37 38 39 40 41 42 43 44 45 45 46 46 46 46 46 46 47 47 47 47 47 47 47 47 47 47 47 46 45
27 28 28 28 29 30 31 31 33 34 34 35 36 36 38 40 41 41 42 43 44 45 45 45 46 46 46 46 46 46 46 46 46 46 46 46 45 45 45 44 43 42 41
28 28 29 30 30 31 32 32 33 34 35 37 38 39 40 40 41 42 44 45 45 46 46 46 46 45 45 45 45 45 45 46 45 44 43 43 42 42 41 40 40 39 38
26 27 28 29 30 30 30 31 32 33 35 37 38 39 40 41 42 44 45 44 44 45 45 44 44 44 44 44 44 44 44 44 43 42 41 41 40 39 39 38 37 36 36
23 24 26 27 28 28 29 31 33 34 36 38 39 40 42 43 43 44 43 43 43 43 43 43 44 44 43 43 43 42 42 41 40 40 39 39 38 38 38 36 35 34 33

GEFSGL_500_meanwind_168.txt.gz
Wind_Speed
13 14 15 15 16 17 18 20 20 20 20 21 19 18 16 15 15 14 14 13 13 12 12 12 12 12 12 11 12 12 12 13 13 13 13 13 14 14 15 15 16 16 17
13 14 15 16 16 17 18 19 19 20 20 20 20 19 17 16 16 15 15 14 14 14 13 13 13 13 13 13 14 14 14 15 15 15 15 15 15 16 17 17 18 18 19
12 13 14 16 17 18 18 19 19 20 20 19 20 19 18 16 16 16 15 15 15 14 14 14 13 14 14 15 15 16 17 16 16 16 16 17 17 18 19 19 20 21 21
12 13 13 14 16 17 18 19 19 20 20 20 20 20 18 18 17 17 16 15 15 15 14 14 15 15 15 16 16 17 17 17 17 17 18 19 20 21 21 22 23 23 24
13 14 14 15 17 18 18 18 19 21 22 21 21 20 19 18 18 17 16 16 16 16 16 16 16 16 17 17 18 18 18 18 19 19 20 21 22 23 24 24 25 26 27
15 15 16 17 17 19 20 20 20 21 21 22 21 20 20 19 19 18 17 17 17 17 17 17 18 18 19 19 19 19 20 20 21 22 22 23 24 25 26 27 28 29 29
16 17 17 18 18 19 20 21 21 21 21 21 20 20 20 20 20 20 19 19 19 19 19 19 19 20 20 21 21 22 22 23 23 23 24 25 26 27 28 29 30 32 33
16 17 18 19 19 20 21 21 22 22 21 20 20 20 21 21 21 20 20 21 21 21 21 22 22 22 22 23 24 25 25 26 26 26 27 28 29 30 31 32 33 34 35
16 17 18 18 19 20 21 22 22 22 21 21 21 21 21 21 21 21 21 21 22 22 23 23 23 24 25 25 25 26 27 28 28 29 29 30 32 33 34 35 36 37 38
16 17 18 19 20 21 21 22 22 22 22 21 21 21 21 21 21 21 22 22 23 23 24 25 26 26 27 27 27 27 28 29 30 30 32 33 34 35 37 38 40 41 41
16 18 19 20 20 21 22 22 23 23 23 23 23 23 23 22 22 22 23 24 24 25 26 27 27 28 28 29 28 28 30 31 32 32 34 35 37 38 39 41 42 43 44
17 19 19 20 20 21 21 22 22 23 24 23 23 23 23 23 24 24 24 24 25 26 26 27 27 28 29 29 30 31 32 33 34 35 36 38 39 40 41 43 44 45 46
18 18 19 20 20 20 21 21 22 22 23 23 23 24 24 24 24 24 24 25 25 26 27 27 28 29 31 31 32 33 35 36 36 37 39 40 42 42 43 44 45 47 48
20 20 21 20 21 21 21 21 21 21 22 22 23 24 24 24 24 25 26 27 27 28 29 29 30 31 32 33 34 35 36 37 38 39 40 42 43 44 45 46 47 48 48
19 19 20 22 21 21 21 22 22 22 23 23 24 24 24 25 26 27 28 29 29 30 30 30 31 32 33 34 35 36 37 39 40 41 42 43 44 46 47 48 49 49 49
18 18 19 20 21 21 21 21 22 22 22 23 24 24 25 26 27 28 29 29 30 30 31 32 33 34 35 36 37 38 39 41 42 43 44 45 46 47 48 49 50 50 50
19 19 19 20 20 21 21 21 22 23 24 24 25 25 26 27 28 29 30 31 32 33 34 35 36 36 37 38 39 40 42 43 44 45 45 46 47 48 49 50 50 50 50
20 20 20 21 22 22 22 23 24 25 25 26 27 28 29 29 30 31 32 33 34 35 35 36 37 38 39 40 41 42 44 45 45 46 47 47 48 49 49 49 50 50 51
21 21 21 21 21 22 23 25 25 26 27 27 28 30 31 31 32 33 33 34 35 36 37 38 39 41 42 42 43 44 45 46 47 47 47 48 48 48 48 49 50 50 51
22 22 22 22 22 23 24 25 26 27 28 29 30 31 32 33 33 33 33 34 35 36 38 39 41 42 43 44 45 46 47 47 47 48 48 48 48 49 49 49 50 50 50
22 22 23 23 24 25 26 26 27 28 29 30 30 31 31 32 32 33 33 34 35 36 38 41 43 43 44 45 47 48 48 47 47 48 48 48 48 49 49 49 49 49 48
22 22 24 25 25 26 27 28 28 29 29 30 30 31 32 32 32 32 34 35 37 38 40 42 43 43 45 47 48 47 47 48 48 48 47 47 47 48 48 48 47 47 46
23 24 24 25 26 26 27 28 29 29 30 31 30 31 32 33 34 35 36 38 40 41 41 42 44 45 46 47 46 46 46 46 46 46 46 46 46 46 46 45 45 45 44
24 25 26 26 27 27 27 28 29 29 30 30 31 32 33 34 36 38 39 41 42 43 43 44 45 45 45 44 44 43 43 43 44 44 44 44 44 44 43 43 42 42 42
22 23 24 24 25 26 27 28 29 29 29 30 31 33 33 34 36 38 40 41 42 42 42 43 44 44 43 42 42 42 42 43 43 43 43 42 42 41 41 40 40 39 39
21 22 22 23 24 25 25 26 27 28 29 30 31 32 34 36 38 39 41 41 41 41 42 42 42 42 41 41 41 41 42 42 43 42 41 41 40 39 38 37 36 35 34